EW1334 Weather Reports


Display with metric or nautical units.
time (UTC)temp
F
wind
direction
speed
MPH
gust
MPH
rain 1hr
in
rain 24hr
in
rain mn
in
humidity
%
barometer
mb
20180920170109 73 185 0.0 0.0 0.00 0.00 0.00 71 1016.8
20180920164557 74 185 0.0 0.0 0.00 0.00 0.00 68 1016.8
20180920163054 77 185 0.0 0.0 0.00 0.00 0.00 62 1016.7
20180920161557 79 185 0.0 0.0 0.00 0.00 0.00 58 1016.7
20180920160059 80 185 0.0 1.0 0.00 0.00 0.00 55 1016.7
20180920154552 81 202 1.0 4.0 0.00 0.00 0.00 53 1016.7
20180920153118 81 171 0.0 5.0 0.00 0.00 0.00 52 1016.7
20180920151612 82 205 0.0 4.0 0.00 0.00 0.00 51 1016.8
20180920150053 82 194 0.0 4.0 0.00 0.00 0.00 50 1016.7
20180920144552 83 238 0.0 5.0 0.00 0.00 0.00 50 1016.8
20180920143057 83 252 4.0 8.0 0.00 0.00 0.00 49 1016.8
20180920141609 84 233 0.0 7.0 0.00 0.00 0.00 48 1016.9
20180920140119 84 222 0.0 9.0 0.00 0.00 0.00 48 1017.0
20180920134610 84 238 2.0 9.0 0.00 0.00 0.00 48 1017.1
20180920133054 84 201 1.0 9.0 0.00 0.00 0.00 48 1017.1
20180920131558 83 251 4.0 8.0 0.00 0.00 0.00 49 1017.2
20180920130058 83 182 3.0 12.0 0.00 0.00 0.00 49 1017.4
20180920124700 84 209 3.0 11.0 0.00 0.00 0.00 49 1017.5
20180920123036 83 284 4.0 11.0 0.00 0.00 0.00 50 1017.6
20180920121535 83 256 4.0 12.0 0.00 0.00 0.00 49 1017.7
20180920120044 84 182 2.0 9.0 0.00 0.00 0.00 47 1017.7
20180920114653 84 292 4.0 10.0 0.00 0.00 0.00 48 1017.9
20180920113028 83 271 4.0 12.0 0.00 0.00 0.00 50 1017.9
20180920111545 82 174 1.0 8.0 0.00 0.00 0.00 51 1017.9
20180920110024 83 183 0.0 8.0 0.00 0.00 0.00 52 1018.0
20180920104523 82 177 1.0 10.0 0.00 0.00 0.00 53 1018.0
20180920103016 81 218 0.0 11.0 0.00 0.00 0.00 54 1018.2
20180920101513 80 169 3.0 11.0 0.00 0.00 0.00 56 1018.2
20180920100015 79 227 2.0 8.0 0.00 0.00 0.00 58 1018.3
20180920094516 79 254 5.0 8.0 0.00 0.00 0.00 58 1018.5
20180920093010 78 163 2.0 7.0 0.00 0.00 0.00 59 1018.6
20180920091510 78 119 0.0 4.0 0.00 0.00 0.00 60 1018.7
20180920090111 77 217 0.0 6.0 0.00 0.00 0.00 62 1018.8
20180920084602 76 176 0.0 5.0 0.00 0.00 0.00 62 1019.0
20180920083116 76 183 0.0 5.0 0.00 0.00 0.00 61 1019.1
20180920081608 75 175 0.0 3.0 0.00 0.00 0.00 65 1019.1
20180920080101 74 208 1.0 4.0 0.00 0.00 0.00 66 1019.0
20180920074550 73 211 0.0 0.0 0.00 0.00 0.00 69 1019.1
20180920073045 71 194 0.0 0.0 0.00 0.00 0.00 71 1019.1
20180920071542 69 238 0.0 4.0 0.00 0.00 0.00 76 1019.1
20180920070110 67 231 0.0 0.0 0.00 0.00 0.00 77 1019.0
20180920064542 66 240 0.0 1.0 0.00 0.00 0.00 80 1019.0
20180920063031 64 273 2.0 6.0 0.00 0.00 0.00 82 1019.0
20180920061536 63 228 0.0 3.0 0.00 0.00 0.00 85 1018.9
20180920060007 61 290 0.0 0.0 0.00 0.00 0.00 90 1018.8
20180920054503 58 290 0.0 0.0 0.00 0.00 0.00 95 1018.6
20180920053139 56 290 0.0 0.0 0.00 0.00 0.00 96 1018.6
20180920051927 55 290 0.0 0.0 0.00 0.00 0.00 97 1018.7
20180920050107 53 290 0.0 0.0 0.00 0.00 0.00 96 1018.7
20180920044557 52 290 0.0 0.0 0.00 0.00 0.00 96 1018.6
20180920043248 52 290 0.0 0.0 0.00 0.00 0.00 96 1018.6
20180920041606 53 290 0.0 0.0 0.00 0.00 0.00 95 1018.5
20180920040048 53 290 0.0 0.0 0.00 0.00 0.00 95 1018.5
20180920034547 53 290 0.0 0.0 0.00 0.00 0.00 95 1018.4
20180920033102 53 290 0.0 0.0 0.00 0.00 0.00 95 1018.3
20180920031555 53 290 0.0 0.0 0.00 0.00 0.00 95 1018.3
20180920030054 53 290 0.0 0.0 0.00 0.00 0.00 95 1018.3
20180920024540 53 290 0.0 0.0 0.00 0.00 0.00 94 1018.3
20180920023054 53 290 0.0 0.0 0.00 0.00 0.00 94 1018.3
20180920021534 54 290 0.0 0.0 0.00 0.00 0.00 94 1018.4
20180920020040 54 290 0.0 0.0 0.00 0.00 0.00 94 1018.3
20180920014539 54 290 0.0 0.0 0.00 0.00 0.00 94 1018.3
20180920013031 55 290 0.0 0.0 0.00 0.00 0.00 93 1018.1
20180920011532 55 290 0.0 0.0 0.00 0.00 0.00 93 1018.1
20180920010050 55 290 0.0 0.0 0.00 0.00 0.00 93 1018.0
20180920004544 56 290 0.0 0.0 0.00 0.00 0.00 91 1018.1
20180920003040 57 290 0.0 0.0 0.00 0.00 0.00 92 1018.1
20180920001521 57 290 0.0 0.0 0.00 0.00 0.00 93 1018.1
20180920000023 56 290 0.0 0.0 0.00 0.00 0.00 93 1017.9
20180919234523 57 290 0.0 0.0 0.00 0.00 0.00 93 1018.1
20180919233041 56 290 0.0 0.0 0.00 0.00 0.00 93 1018.0
20180919231530 56 290 0.0 0.0 0.00 0.00 0.00 93 1018.1
20180919230021 57 290 0.0 0.0 0.00 0.00 0.00 93 1018.1
20180919224518 57 290 0.0 0.0 0.00 0.00 0.00 93 1018.1
20180919223028 57 219 0.0 0.0 0.00 0.00 0.00 93 1017.9
20180919221514 57 219 0.0 0.0 0.00 0.00 0.00 92 1017.9
20180919220036 58 219 0.0 0.0 0.00 0.00 0.00 92 1017.9
20180919214511 58 219 0.0 0.0 0.00 0.00 0.00 92 1017.9
20180919213009 58 219 0.0 0.0 0.00 0.00 0.00 91 1018.0
20180919211509 59 219 0.0 0.0 0.00 0.00 0.00 90 1017.9
20180919210026 59 219 0.0 0.0 0.00 0.00 0.00 90 1017.9
20180919204531 59 219 0.0 0.0 0.00 0.00 0.00 89 1017.9
20180919203012 60 219 0.0 0.0 0.00 0.00 0.00 89 1017.8
20180919201512 60 219 0.0 0.0 0.00 0.00 0.00 88 1017.7
20180919200007 61 219 0.0 0.0 0.00 0.00 0.00 87 1017.8
20180919194513 62 219 0.0 0.0 0.00 0.00 0.00 86 1017.7
20180919193008 62 219 0.0 0.0 0.00 0.00 0.00 86 1017.7
20180919191506 63 219 0.0 0.0 0.00 0.00 0.00 84 1017.7
20180919190010 63 219 0.0 0.0 0.00 0.00 0.00 83 1017.7
20180919184508 64 219 0.0 0.0 0.00 0.00 0.00 82 1017.5
20180919183010 65 219 0.0 0.0 0.00 0.00 0.00 80 1017.5
20180919181512 65 219 0.0 0.0 0.00 0.00 0.00 80 1017.5
20180919180007 66 219 0.0 0.0 0.00 0.00 0.00 78 1017.4
20180919174503 67 219 0.0 0.0 0.00 0.00 0.00 77 1017.4
20180919173002 69 219 0.0 0.0 0.00 0.00 0.00 75 1017.3
20180919171502 70 219 0.0 0.0 0.00 0.00 0.00 71 1017.3